Tracking 28790 objects as of 18-Apr-2024
HD Live streaming from Space Station
objects crossing your sky now

COSMOS 1375 DEB

Track COSMOS 1375 DEB now!
10-day predictions


NORAD ID: 16378
Int'l Code: 1982-055S
Perigee: 939.2 km
Apogee: 993.7 km
Inclination: 65.8 °
Period: 104.3 minutes
Semi major axis: 7337 km
RCS: 0.0168 m2 (small)
Launch date: June 6, 1982
Source: Commonwealth of Independent States (former USSR) (CIS)
Launch site: PLESETSK MISSILE AND SPACE COMPLEX (PKMTR)

Note: This is SATELLITE DEBRIS
Your satellite tracking list
Your tracking list is empty




NASA's NSSDC Master Catalog

Two Line Element Set (TLE):
1 16378U 82055S   24109.44530240  .00000332  00000-0  38734-3 0  9999
2 16378  65.8316 264.8951 0037125 212.9180 179.6131 13.81282281939333
Source of the keplerian elements: AFSPC